Regional Weather Roundup
Issued by NWS

Home | Current Version | Previous Version | Text Only | Print | Product List | Glossary Off
Versions: 1 2 3 4 5 6 7 8 9 10 11 12 13 14 15 16 17 18 19 20 21 22 23 24 25 26 27 28 29 30 31 32 33 34 35 36 37 38 39 40 41 42 43 44 45 46 47 48 49 50

000
ASUS43 KOAX 270210
RWRNE

WEATHER ROUNDUP FOR NEBRASKA
NATIONAL WEATHER SERVICE OMAHA NE
800 PM CST WED NOV 26 2014

NOTES: SATELLITE DATA IS BEING USED TO AUGMENT CLOUD COVER ABOVE
       12000 FEET.
       "FAIR" INDICATES FEW OR NO CLOUDS BELOW 12,000 FEET WITH NO
       SIGNIFICANT WEATHER AND/OR OBSTRUCTIONS TO VISIBILITY.

  * THESE STATIONS DO NOT REPORT WEATHER SUCH AS RAIN...SNOW OR FOG.

NEZ001>004-019>022-054>056-270300-
NEBRASKA PANHANDLE

CITY           SKY/WX    TMP DP  RH WIND       PRES   REMARKS
SCOTTSBLUFF    MOCLDY    21  20  96 E7        30.27S FOG     WCI  12
ALLIANCE       CLOUDY    27  25  92 SW7       30.28R WCI  19
CHADRON        CLOUDY   N/A N/A N/A SE3       30.27S
KIMBALL        MOCLDY    26  24  93 S7        30.23S WCI  18
SIDNEY         MOCLDY    25  23  92 SE5       30.28S WCI  19
$$

NEZ057>060-069>072-079>082-270300-
SOUTHWEST NEBRASKA

CITY           SKY/WX    TMP DP  RH WIND       PRES   REMARKS
NORTH PLATTE   MOCLDY    27  19  72 CALM      30.35R
IMPERIAL       CLOUDY    31  27  85 W3        30.33R
LEXINGTON      PTCLDY    27  18  70 CALM      30.36S
MCCOOK         CLOUDY    34  22  61 W5        30.35R WCI  30
OGALLALA       LGT SNOW  31  30  97 W3        30.33R
$$

NEZ005>010-023>029-035>040-094-270300-
NORTH CENTRAL NEBRASKA

CITY           SKY/WX    TMP DP  RH WIND       PRES   REMARKS
VALENTINE      MOCLDY    23  18  81 E3        30.33R
AINSWORTH      MOCLDY    19  15  87 E5        30.34R WCI  12
BROKEN BOW     MOCLDY    24  17  74 N5        30.36R WCI  18
O`NEILL        CLOUDY    20  14  77 N5        30.38S WCI  14
ORD            MOCLDY    21  14  74 NW5       30.37R WCI  15
THEDFORD       CLOUDY    27  20  76 CALM      30.33S
$$

NEZ041-046>049-061>064-073>077-083>087-270300-
SOUTH CENTRAL NEBRASKA

CITY           SKY/WX    TMP DP  RH WIND       PRES   REMARKS
GRAND ISLAND   PTCLDY    24  17  74 NW9       30.39R WCI  14
AURORA         PTCLDY    22  16  77 N3        30.39R
HASTINGS       PTCLDY    23  16  74 N6        30.38R WCI  16
HEBRON         PTCLDY    26  17  71 N8        30.40R WCI  17
HOLDREGE       PTCLDY    26  17  68 CALM      30.37S
KEARNEY *      MOCLDY    25  16  68 NW9       30.38S WCI  15
YORK           MOCLDY    25  16  68 N9        30.39R WCI  15
$$

NEZ011>018-030>034-042>045-270300-
NORTHEAST NEBRASKA

CITY           SKY/WX    TMP DP  RH WIND       PRES   REMARKS
NORFOLK        PTCLDY    18  11  74 NW14      30.39R WCI   4
ALBION         CLOUDY    22  12  63 N8        30.38R WCI  13
BLAIR          CLOUDY    24  19  80 NW14G21   30.37R WCI  11
COLUMBUS *     MOCLDY    21  10  63 N7        30.42R WCI  13
FREMONT        CLOUDY    23  18  82 NW13G18   30.41R WCI  11
TEKAMAH        CLOUDY    24  18  77 N18G24    30.39R WCI  10
WAYNE          PTCLDY    16  11  80 N9        30.42R WCI   5
$$

NEZ050>053-065>068-078-088>093-270300-
SOUTHEAST NEBRASKA

CITY           SKY/WX    TMP DP  RH WIND       PRES   REMARKS
LINCOLN        MOCLDY    25  17  72 N15       30.41R WCI  13
OMAHA EPPLEY   CLOUDY    24  18  77 N22G31    30.40R WCI   9
BEATRICE       MOCLDY    26  19  75 N13G22    30.38R WCI  15
FALLS CITY     CLOUDY    27  20  75 NW17G28   30.34R WCI  14
NEBRASKA CITY  CLOUDY    25  18  74 N18       30.35R WCI  11
PLATTSMOUTH    CLOUDY    24  18  79 NW16G23   30.36R WCI  11
$$

NEZ044-045-051>053-067-270300-
OMAHA AREA

CITY           SKY/WX    TMP DP  RH WIND       PRES   REMARKS
OMAHA EPPLEY   CLOUDY    24  18  77 N22G31    30.40R WCI   9
BLAIR          CLOUDY    24  19  80 NW14G21   30.37R WCI  11
FREMONT        CLOUDY    23  18  82 NW13G18   30.41R WCI  11
MILLARD        CLOUDY    25  18  77 NW13G21   30.39R WCI  13
OFFUTT AFB     CLOUDY    24  18  76 N14       30.39R WCI  12
PLATTSMOUTH    CLOUDY    24  18  79 NW16G23   30.36R WCI  11
WAHOO          CLOUDY    23  18  78 N18G24    30.39R WCI   9
$$


USA.gov is the U.S. government's official web portal to all federal, state and local government web resources and services.